User: anonymous   Login
Location: Wawayanda State Park
(41.1833°N, 74.4333°W)
Time: 20:32:09
(UTC-04:00)
Language:

Landsat 7 - Orbit

View from above orbital plane
View from above orbital plane
View from above satellite
View from above satellite

Ground track
Ground track

The orbit data is extracted from the following two-line orbital elements,

1 25682U 99020A   15086.35081604  .00000339  00000-0  85375-4 0  9997
2 25682 098.2244 157.3164 0000907 078.8438 281.2862 14.57108320848229
Epoch (UTC): 27 March 2015 08:25:10
Eccentricity: 0.0000907
inclination: 98.2244°
perigee height: 702 km
apogee height: 703 km
right ascension of ascending node: 157.3164°
argument of perigee: 78.8438°
revolutions per day: 14.57108320
mean anomaly at epoch: 281.2862°
orbit number at epoch: 84822

The dashed part of the orbit path shows where the satellite is in the earth's shadow,  

DLR